Flag for Canada Weather past 2 weeks in Saint-Jérôme, Quebec, Canada

Now
0 °F

Sunny.


Feels Like: -19 °F
Forecast: -15 / 6 °F
Wind: 14 mph from West

Location: Montreal / Mirabel

Current Time: Jan 31, 2015 at 1:31:20 PM

Latest Report: Jan 31, 2015 at 1:00 PM


Visibility: 45 mi

Pressure: 30.19 "Hg

Humidity: 41%

Dew point: -18 °F

Location of Saint-JérômeLocation

Historic Weather in Saint-Jérôme — Graph

°F

Saint-Jérôme temperature yesterday

Maximum temperature yesterday: 25 °F (at 9:00 AM)
Minimum temperature yesterday: 0 °F (at 11:00 PM)
Average temperature yesterday: 17 °F

Past Weeks' High & Low Weather Summary

 TemperatureHumidityPressure
High32 °F (Jan 19, 10:00 AM)100% (Jan 18, 8:54 PM)30.44 "Hg (Jan 18, 8:54 PM)
Low-17 °F (Jan 17, 7:00 AM)31% (Jan 27, 3:00 PM)29.30 "Hg (Jan 25, 1:00 AM)
Average9 °F66%30.01 "Hg
* Reported Jan 16 12:00 Noon — Jan 31 12:00 Noon, Saint-Jérôme, Weather by CustomWeather, © 2014

Note: Actual official high and low records may vary slightly from our data, if they occured in-between our weather recording intervals... More about our weather records

Advertising

Saint-Jérôme weather history for previous 24 hours

 ConditionsComfort  
Time TempWeatherWind HumidityBarometerVisibility
12:00 PM
Jan 31
-2 °FSunny.12 mph49%30.22 "Hg45 mi
11:00 AM-4 °FPassing clouds.7 mph49%30.26 "Hg45 mi
10:00 AM-8 °FPassing clouds.8 mph53%30.27 "Hg45 mi
9:00 AM-9 °FPassing clouds.7 mph58%30.26 "Hg45 mi
8:00 AM-13 °FPassing clouds.6 mph63%30.26 "Hg45 mi
7:00 AM-11 °FPassing clouds.3 mph63%30.25 "Hg45 mi
6:00 AM-9 °FClear.7 mph58%30.23 "Hg25 mi
5:00 AM-9 °FClear.5 mph64%30.23 "Hg25 mi
4:00 AM-9 °FClear.5 mph64%30.23 "Hg25 mi
3:00 AM-8 °FClear.7 mph64%30.22 "Hg25 mi
2:00 AM-6 °FClear.5 mph64%30.22 "Hg25 mi
1:00 AM-4 °FClear.5 mph65%30.20 "Hg25 mi
12:00 AM0 °FClear.6 mph54%30.19 "Hg25 mi
11:00 PM
Jan 30
0 °FClear.7 mph54%30.18 "Hg25 mi
10:00 PM1 °FPassing clouds.3 mph55%30.17 "Hg25 mi
9:00 PM5 °FPassing clouds.7 mph51%30.16 "Hg25 mi
8:00 PM7 °FPassing clouds.10 mph56%30.13 "Hg25 mi
7:00 PM10 °FPassing clouds.18 mph52%30.11 "Hg25 mi
6:00 PM12 °FMostly cloudy.10 mph57%30.10 "Hg25 mi
5:00 PM14 °FPassing clouds.10 mph52%30.06 "Hg25 mi
4:00 PM18 °FPartly sunny.7 mph49%30.02 "Hg25 mi
3:00 PM16 °FMostly cloudy.12 mph53%29.98 "Hg25 mi
2:00 PM18 °FLight snow. Mostly cloudy.12 mph53%29.96 "Hg20 mi
1:00 PM19 °FLight snow. More clouds than sun.12 mph53%29.94 "Hg10 mi
Weather by CustomWeather, © 2014

See weather overviewHow to use our weather pages